Wind_Speed
46 46 46 46 46 47 47 47 48 48 49 50 51 51 52 53 54 55 55 56 57 58 58 59 59 60 61 62 61 61 60 59 57 57 57 57 57 57 57 59 59 59 59 59 58 57 57 57 57 57 58 58 57 55 54 53 53 54 53 53 53 52 49 46 43 40 39 35 32 33 34 38 39 37 40 40 41 42 42 43 43 43 43 42 40 37 36 34
46 46 47 47 48 48 48 48 49 49 50 51 52 52 53 54 55 55 56 56 56 57 58 59 60 60 61 62 62 62 62 61 59 58 58 57 57 57 57 57 58 58 58 59 59 58 58 57 57 57 57 58 58 56 56 55 54 54 53 53 52 48 45 41 39 39 38 36 34 33 34 37 36 36 40 41 43 45 45 45 45 45 45 44 41 38 36 34
47 47 48 49 50 50 51 51 52 52 53 53 54 54 55 55 56 57 57 57 57 58 58 59 59 60 62 63 63 62 63 62 61 60 59 57 57 58 57 57 57 57 57 58 59 59 59 59 58 58 57 57 57 57 57 57 56 55 54 54 51 46 43 39 38 37 36 35 34 33 35 36 34 36 39 40 43 46 47 47 48 48 48 47 43 41 40 37
48 49 50 51 52 53 54 54 55 55 55 56 56 57 57 58 58 59 59 60 60 59 59 59 59 60 61 63 64 63 63 63 62 62 61 59 58 58 57 57 56 56 56 57 59 59 60 60 59 59 58 57 56 56 57 57 57 56 56 54 49 45 43 40 37 35 34 34 33 33 34 34 34 36 38 38 40 43 45 47 48 49 50 49 47 46 45 41
51 52 53 53 54 55 55 55 56 56 56 57 57 58 58 59 60 61 61 62 62 62 62 62 61 61 61 62 64 64 64 64 63 63 63 62 60 58 58 57 56 57 57 57 57 58 60 60 60 59 59 57 56 55 55 56 56 56 55 52 49 47 44 39 36 35 34 34 33 32 33 32 33 35 37 38 38 39 42 45 47 49 50 50 48 48 47 43
53 54 54 55 55 55 55 55 55 55 55 56 56 57 58 59 60 61 62 63 64 64 64 64 64 63 62 62 63 64 65 65 64 64 64 64 63 61 59 58 57 57 57 56 55 56 58 60 60 60 59 57 56 54 53 53 54 54 53 52 52 50 45 39 37 36 35 35 32 32 32 31 33 35 37 39 39 39 40 42 45 45 46 45 44 46 47 44
53 53 53 52 52 52 52 52 52 53 53 53 54 54 55 57 58 60 61 63 64 65 66 66 66 66 65 64 63 63 64 64 66 66 65 65 65 63 61 59 58 58 57 56 55 55 56 58 59 59 59 57 56 54 52 52 53 53 52 52 52 50 46 41 39 37 36 35 32 32 32 32 34 36 38 40 40 40 41 42 42 41 39 39 40 44 45 44
51 50 49 48 47 47 46 47 47 47 48 50 51 51 52 53 55 57 59 61 62 64 65 66 67 67 67 66 65 64 62 63 66 67 67 66 66 65 64 62 60 58 57 56 55 54 55 56 57 58 58 57 55 54 52 52 52 52 51 51 50 48 46 42 40 39 37 35 33 34 34 34 35 37 39 41 41 42 42 41 40 37 37 38 40 42 42 41
47 46 45 44 43 42 42 42 42 42 43 44 46 48 49 50 52 53 55 58 60 62 63 64 66 67 68 67 67 66 60 61 66 67 67 67 66 66 65 64 62 60 58 56 55 55 55 55 55 56 57 56 54 53 52 52 52 51 50 49 49 46 44 42 42 41 39 36 35 35 35 34 35 38 41 41 42 42 42 40 39 38 39 40 41 41 41 39
44 42 42 41 41 41 41 41 42 42 42 42 42 43 46 48 49 51 52 54 56 59 61 62 64 65 67 68 68 65 58 60 66 66 65 67 67 67 66 66 64 62 60 58 56 55 54 54 53 54 55 55 55 54 53 53 53 52 50 47 47 45 43 43 42 42 40 38 37 37 36 34 35 39 42 42 42 42 40 39 39 39 39 40 41 42 41 39
41 41 41 42 42 43 44 44 45 45 45 44 44 44 44 45 47 49 50 51 53 56 58 59 61 62 65 66 67 63 58 61 67 66 65 66 67 67 67 67 66 65 62 60 58 55 53 52 53 54 55 55 55 54 53 54 54 52 50 47 46 46 45 44 43 42 42 42 39 38 36 35 36 41 42 42 41 39 39 40 40 38 36 37 41 41 39 37
41 42 43 44 46 46 47 48 48 48 48 48 48 47 48 47 47 48 49 50 51 53 55 57 59 60 62 63 61 61 61 64 69 67 66 66 66 67 67 67 67 66 64 62 59 56 54 53 53 54 54 54 54 53 53 54 54 52 51 49 47 47 46 46 44 43 43 43 40 39 40 39 40 41 41 40 39 37 39 41 39 35 32 34 38 38 36 34
42 44 46 47 48 49 50 50 51 51 51 51 51 51 51 51 51 51 50 50 51 51 52 54 56 58 60 58 54 59 62 63 67 68 66 65 64 65 66 66 66 66 65 63 61 59 56 54 54 53 53 53 53 53 53 54 54 52 52 50 48 48 47 46 45 44 44 43 41 43 45 44 41 42 42 40 38 38 38 39 37 33 31 34 34 32 30 29
44 46 48 49 50 51 52 53 54 55 56 58 58 58 57 56 56 55 54 53 52 52 52 52 53 55 58 53 50 57 60 59 62 64 64 64 63 63 63 63 63 64 64 62 61 60 58 57 55 53 53 53 52 53 52 52 52 52 52 52 50 50 48 45 45 45 45 43 42 45 47 44 41 42 43 40 39 38 36 35 34 31 32 33 30 27 25 24
45 47 49 49 51 52 55 58 61 64 66 67 67 66 64 63 62 60 58 56 55 54 53 53 52 53 54 49 48 55 57 54 58 62 65 66 63 61 60 60 60 61 61 61 60 59 59 59 57 55 53 52 52 53 53 52 52 51 52 52 51 51 48 45 45 45 44 43 43 46 47 44 42 43 43 41 40 37 33 32 32 31 32 30 28 26 24 24
46 48 48 50 52 55 60 64 67 68 69 70 70 69 68 67 66 65 62 60 59 57 55 54 54 53 51 48 48 53 54 50 55 61 65 66 63 61 61 59 58 58 59 59 59 58 59 59 58 56 54 52 52 53 53 53 52 51 52 52 51 51 49 45 44 44 43 43 44 46 47 43 41 43 42 41 39 36 32 31 31 30 30 29 28 26 25 26
46 46 47 50 54 58 62 61 58 56 55 56 56 57 59 62 65 66 65 63 61 60 58 56 56 54 50 48 48 52 51 47 52 59 61 62 60 61 63 60 57 57 56 58 58 58 59 60 59 57 56 54 52 53 54 53 52 52 52 52 52 51 49 46 44 43 43 43 45 46 46 43 42 42 41 40 38 34 31 30 29 28 29 29 28 26 26 27
45 45 48 51 55 58 56 49 48 50 46 43 41 40 42 46 52 58 62 64 63 62 60 58 58 55 50 49 50 52 50 46 49 55 57 56 54 57 62 60 57 57 56 57 57 57 58 59 60 59 57 56 55 55 54 53 51 52 52 52 51 50 49 46 43 42 42 43 45 46 46 44 43 42 40 39 36 32 30 28 28 29 30 30 29 28 27 27
43 44 48 50 53 53 47 43 48 52 45 38 35 33 33 34 36 41 48 56 60 62 61 61 60 56 51 51 52 53 51 46 47 52 54 53 52 54 58 58 56 57 57 57 58 58 59 60 61 61 60 58 56 55 54 52 50 49 50 50 49 49 47 45 42 41 40 42 44 45 46 45 43 41 38 37 34 30 27 26 28 30 30 30 29 28 27 26
42 44 47 47 48 47 43 43 48 52 46 35 30 29 29 29 29 30 34 40 48 55 60 61 61 58 54 53 54 54 51 48 47 50 51 51 51 53 56 56 56 57 57 58 58 58 60 61 62 61 59 57 55 54 53 51 47 47 48 48 48 47 46 43 41 40 39 40 42 43 44 43 41 38 36 35 33 28 25 25 28 28 29 29 28 26 26 25
41 44 45 44 44 43 42 43 46 50 48 38 29 25 24 24 25 27 29 30 34 42 50 57 61 61 57 54 54 55 53 49 47 48 50 49 50 53 56 57 57 57 57 58 59 59 61 61 60 59 58 56 55 53 52 49 45 45 47 47 47 46 44 42 40 39 39 40 41 42 42 42 40 38 36 35 31 25 24 26 27 27 28 28 27 24 23 23
40 43 43 41 41 41 41 42 44 47 48 43 34 26 22 21 21 23 26 25 27 33 39 47 56 60 58 55 55 57 54 49 47 48 50 49 50 52 54 56 56 56 57 59 60 61 61 61 60 60 58 56 55 54 52 48 45 45 46 46 47 46 44 42 39 39 40 40 41 41 41 41 40 38 36 34 30 25 25 27 28 29 29 28 25 23 21 21
39 41 40 38 38 39 39 40 40 43 45 43 39 31 25 22 20 20 20 17 19 27 32 38 48 55 56 53 54 58 55 50 49 50 50 49 49 52 55 56 55 54 56 59 60 61 61 60 60 60 59 58 57 55 53 49 47 46 46 46 46 45 44 42 40 40 40 40 40 40 40 40 40 38 36 35 32 29 29 30 30 30 30 28 27 24 21 19
38 39 38 35 36 37 38 38 37 38 40 40 38 35 30 27 23 18 15 10 9 19 27 33 40 46 48 48 53 58 55 52 50 50 50 49 49 52 55 55 55 54 55 57 59 60 60 59 59 59 60 59 58 56 54 50 49 48 47 46 45 44 44 42 39 40 40 39 39 39 39 40 39 38 37 37 36 33 32 32 31 30 30 30 28 24 21 18
37 38 36 34 34 37 39 38 35 34 35 37 37 35 32 29 26 21 17 11 4 10 19 24 29 36 42 46 50 55 55 52 50 50 50 49 50 52 55 56 56 54 54 56 58 59 59 58 58 58 59 59 58 57 54 51 48 48 47 46 44 43 43 41 39 39 39 39 39 39 40 41 40 38 38 38 37 35 34 33 31 30 30 29 26 23 20 18
37 37 36 35 35 39 42 38 34 31 30 32 34 34 32 30 27 24 20 16 12 10 11 11 16 26 36 44 47 51 52 48 47 50 50 49 50 53 57 58 56 54 53 56 58 58 58 57 57 57 57 57 58 56 53 50 48 47 46 44 42 42 41 39 38 39 39 39 39 38 39 39 38 38 37 37 36 36 35 33 30 29 27 25 24 22 20 17
37 37 37 37 38 40 43 38 33 31 29 28 30 31 31 30 28 27 23 20 18 14 10 8 8 14 25 38 45 48 49 45 47 51 49 47 50 54 58 58 57 55 55 57 58 58 57 56 56 57 56 56 56 55 52 49 47 46 44 42 41 40 38 36 36 37 39 39 39 38 38 38 38 37 37 37 37 37 36 33 30 27 25 23 23 21 20 18
36 37 38 39 40 41 42 37 30 30 28 26 27 27 28 28 26 25 24 22 18 13 12 13 11 10 15 27 38 44 45 44 46 49 47 46 49 54 58 58 57 56 56 58 57 56 56 55 56 56 56 56 55 53 50 48 47 45 41 40 39 37 34 33 34 36 38 39 40 40 41 41 40 37 37 38 39 39 37 33 29 25 22 22 22 21 20 18
35 37 38 39 39 39 38 32 27 27 27 26 26 24 24 24 24 22 21 20 17 14 16 18 12 11 14 18 29 38 42 43 45 48 47 47 49 53 57 57 57 56 56 57 56 56 56 54 53 54 55 55 54 51 49 47 46 42 39 39 37 35 33 33 34 35 37 41 43 43 43 43 42 39 39 41 41 38 34 30 25 21 19 19 21 21 20 19
34 35 37 36 36 34 31 28 26 25 25 26 27 26 23 21 21 21 18 16 15 15 17 17 13 13 14 14 24 33 39 43 47 48 46 46 49 53 56 57 56 55 55 56 56 55 54 52 52 53 53 53 52 49 47 46 43 39 39 39 37 35 35 36 36 36 39 44 45 43 43 43 43 41 41 42 38 32 29 25 20 17 15 16 19 21 20 18
33 33 34 33 32 31 28 26 25 24 25 26 28 29 27 23 20 19 17 14 14 17 16 13 12 13 10 13 23 32 38 44 48 48 45 46 50 54 57 57 55 54 56 57 57 55 53 52 53 53 53 52 50 48 46 44 40 39 40 40 37 36 37 38 38 39 43 47 45 42 42 44 44 42 41 38 32 27 25 21 14 11 9 10 15 18 18 17
31 31 32 31 30 30 28 27 25 24 26 27 28 29 29 27 22 19 17 16 17 19 16 10 10 8 7 12 22 33 40 44 47 48 47 48 51 54 55 56 54 54 56 57 55 54 53 53 54 54 53 53 50 48 47 44 41 42 43 42 40 40 41 42 42 44 47 47 43 41 42 45 45 41 36 33 30 27 25 19 13 12 10 9 11 15 17 17
30 30 30 30 29 29 29 27 25 24 24 26 26 27 28 28 24 21 20 18 20 20 14 10 6 4 7 10 22 36 42 44 45 47 47 49 51 52 53 54 53 53 54 55 54 54 54 55 56 56 54 53 52 50 50 48 45 46 46 44 44 45 46 46 46 46 47 46 41 40 43 46 45 40 35 32 27 22 20 16 14 15 16 13 12 13 16 17
30 28 28 28 28 29 29 27 26 25 24 24 24 24 25 26 25 23 20 18 19 17 11 7 1 5 6 11 26 39 42 43 44 45 47 50 52 52 52 54 54 53 53 53 54 54 55 56 57 57 55 54 53 51 48 45 45 46 46 45 46 46 47 46 45 45 46 44 40 40 45 48 45 40 34 30 26 22 19 17 17 19 20 19 17 16 15 15
30 28 26 26 27 29 29 27 27 27 25 25 23 22 23 24 24 21 18 17 18 15 10 4 3 3 6 14 28 40 42 41 43 44 46 50 52 52 52 52 53 53 53 52 51 52 53 54 55 55 54 53 52 50 46 43 44 45 46 47 46 45 45 44 43 44 43 41 40 42 46 47 45 39 31 30 31 28 22 19 20 22 21 20 20 20 18 15
30 28 25 25 27 29 29 29 28 27 27 28 26 23 23 22 22 19 17 17 16 14 10 5 3 2 9 18 30 39 40 38 40 43 45 48 50 51 51 52 53 53 52 50 49 50 52 52 51 52 52 52 50 48 47 45 45 47 47 47 46 45 44 44 43 43 42 41 41 43 44 43 43 38 32 32 34 30 24 21 21 21 19 19 20 22 22 18
30 28 25 24 25 28 30 30 29 28 30 32 30 27 24 22 21 19 17 16 13 11 10 8 5 5 11 20 31 38 38 38 39 41 44 47 49 50 51 52 52 50 48 48 48 49 50 49 48 49 50 50 48 45 45 45 45 47 48 46 46 46 45 45 45 45 44 43 42 42 43 41 41 38 34 34 32 29 25 22 21 20 17 18 20 23 25 22
31 29 26 23 24 26 28 30 29 30 32 33 31 29 25 23 22 19 18 17 14 11 10 8 8 10 14 23 33 34 33 38 40 40 42 45 47 49 51 51 49 46 45 46 47 48 48 47 46 47 47 47 46 45 45 45 45 47 47 45 46 47 48 48 48 47 46 45 42 41 41 40 39 37 34 34 32 27 25 23 20 17 14 15 19 23 25 26
31 28 26 24 23 24 26 27 26 28 30 31 30 29 26 23 22 20 19 18 16 13 10 12 16 17 19 25 32 32 33 36 38 40 42 43 45 47 48 48 44 42 43 45 46 46 46 45 44 45 44 44 46 47 47 47 48 49 48 46 46 47 48 49 48 45 43 43 41 39 40 39 36 34 30 29 29 27 24 21 19 15 11 12 16 18 22 25
32 29 26 24 23 23 24 24 23 25 27 27 28 28 25 22 21 21 20 18 16 15 19 23 24 23 20 21 24 24 29 35 36 39 41 41 43 45 45 44 41 41 41 43 44 43 44 44 41 41 42 44 47 47 46 46 49 51 51 50 50 50 49 48 47 45 41 41 41 38 38 36 31 28 26 24 25 25 22 19 18 14 11 13 14 15 19 24
31 29 26 24 23 22 23 23 22 23 23 23 24 25 24 22 20 21 20 17 18 22 25 24 22 19 14 15 18 15 21 30 35 38 40 40 41 42 43 42 41 41 41 42 42 41 42 41 38 39 43 45 45 44 42 43 47 49 50 51 52 52 51 49 48 46 41 39 40 37 34 32 29 24 23 25 24 22 19 18 17 14 12 13 12 12 19 25
30 29 27 24 23 23 23 23 24 23 22 21 22 22 21 20 18 19 18 16 18 20 21 18 16 17 13 11 15 15 19 28 34 36 38 39 40 41 41 42 42 41 40 39 38 39 40 39 38 39 41 43 42 41 41 43 45 46 46 49 52 52 52 51 49 47 43 39 38 38 34 30 29 25 22 24 24 21 19 20 19 15 13 15 13 12 17 24
29 29 27 25 24 23 22 22 23 23 22 22 21 19 19 17 15 15 15 13 15 17 18 16 14 15 12 10 13 15 19 28 34 35 35 37 40 41 41 42 43 42 40 39 37 38 39 38 39 39 39 39 40 40 41 43 45 45 46 49 52 53 52 51 46 42 42 40 38 39 37 32 30 28 25 25 24 23 23 22 21 18 17 19 16 13 14 18
27 28 27 26 24 22 21 21 21 21 22 22 20 19 18 17 14 12 12 11 12 14 14 14 12 10 8 7 9 11 16 26 32 32 33 37 41 42 42 43 43 43 42 41 38 38 39 39 41 41 40 41 42 43 44 45 46 46 47 49 52 53 52 51 46 39 39 42 42 40 39 36 33 31 29 27 25 25 25 24 23 22 22 23 20 15 12 12
27 27 27 27 25 21 19 20 20 21 22 22 20 19 17 17 16 13 10 9 8 10 11 12 11 10 11 8 8 10 15 25 30 29 31 38 42 44 44 44 45 44 42 40 38 39 40 42 43 42 43 45 46 48 48 48 48 47 47 50 52 54 53 52 49 43 39 40 44 42 39 38 36 34 32 31 29 26 25 25 24 25 26 25 21 18 16 14
27 27 27 26 24 20 16 17 19 21 22 22 20 18 16 16 18 15 10 7 5 7 9 11 10 12 13 10 10 11 15 22 27 28 32 39 44 46 46 48 48 45 42 40 39 41 42 43 43 42 41 42 44 46 46 47 49 48 48 51 52 54 55 52 49 47 42 39 40 42 43 40 39 37 36 34 33 30 28 27 27 27 27 26 25 25 24 21
27 27 27 25 23 19 16 15 18 20 21 22 21 18 16 16 18 16 12 9 7 9 11 12 11 10 10 11 12 12 13 19 24 28 34 41 46 48 49 50 48 43 42 41 40 41 41 41 41 40 37 37 39 42 43 45 47 47 48 50 52 54 55 54 50 47 46 42 34 34 41 42 40 40 38 36 36 34 32 30 30 30 30 30 29 30 31 29
29 27 26 25 23 20 16 15 18 20 19 21 23 21 17 17 18 17 14 12 11 12 13 12 10 9 10 12 13 12 12 18 23 29 38 44 47 48 47 47 44 41 43 42 39 39 39 38 39 37 34 33 36 38 40 42 44 45 46 49 51 53 54 54 51 47 46 43 33 27 33 38 40 41 40 39 38 36 34 33 34 35 35 34 31 28 27 29
28 26 25 24 24 21 18 15 16 18 17 19 23 21 17 18 19 18 16 14 11 10 11 10 9 10 14 15 14 13 13 17 24 32 42 47 50 49 46 43 40 40 42 40 38 39 37 36 37 35 32 32 34 37 38 40 42 43 45 47 49 51 51 51 50 48 46 43 37 30 28 31 35 38 39 38 38 36 34 34 35 37 35 33 28 22 19 23
26 25 25 25 24 22 19 16 15 17 18 21 24 21 18 18 19 19 18 16 13 10 10 10 9 12 16 17 17 15 13 15 24 35 44 50 51 49 46 42 37 39 41 37 37 39 37 36 36 34 33 33 35 37 37 38 40 42 43 46 46 48 50 49 48 48 46 43 40 35 31 29 30 32 32 31 31 30 28 28 29 30 28 27 25 21 18 18
27 27 25 24 23 21 20 17 15 16 18 20 21 18 17 18 19 19 19 16 14 12 10 10 10 14 16 17 17 17 14 14 24 38 46 51 50 48 46 40 35 39 41 35 34 37 36 35 34 32 33 34 35 37 37 38 39 40 41 44 45 46 48 49 47 46 45 42 40 38 35 31 30 30 29 27 26 25 24 24 25 25 24 25 26 25 22 18
27 27 25 24 22 21 20 18 16 15 15 16 17 17 17 17 16 15 15 13 12 13 12 12 13 15 15 14 16 19 16 14 27 41 48 50 49 48 47 39 35 39 41 34 32 34 34 35 33 30 32 34 34 36 38 38 39 39 40 43 45 46 47 49 48 47 45 42 40 38 35 33 31 30 29 28 27 25 23 22 21 20 20 22 25 27 25 23
Wind_Direction
284 283 281 279 278 276 274 272 270 268 266 264 263 261 260 259 257 256 254 253 252 250 249 248 248 247 246 244 242 240 240 239 239 238 238 237 237 237 236 237 237 236 236 236 235 235 235 235 236 235 236 236 236 237 237 238 238 239 239 241 242 243 244 245 246 247 249 248 244 240 240 239 237 238 240 234 234 235 235 237 237 238 241 244 247 248 250 253
287 285 284 283 281 279 277 275 273 271 269 267 265 263 261 259 258 256 255 253 252 251 249 248 247 247 247 246 244 241 239 239 238 238 238 236 236 236 236 236 237 236 235 235 235 235 235 234 235 235 234 235 235 235 236 237 237 238 239 242 243 244 246 247 248 248 248 247 245 242 241 241 239 239 240 235 232 234 237 240 242 243 244 245 246 248 249 249
289 287 286 285 283 282 280 278 276 273 271 269 266 264 262 260 258 257 255 254 252 251 250 249 247 246 245 246 245 243 240 239 238 238 238 236 235 236 236 235 236 237 235 235 235 235 234 234 234 234 234 234 234 234 235 236 236 237 239 241 242 244 246 246 246 246 247 247 245 241 241 241 240 239 238 236 233 232 234 239 243 246 247 247 247 248 249 249
291 290 288 286 285 283 281 279 277 275 273 271 268 266 264 262 260 258 256 254 252 251 250 249 247 246 244 244 245 244 242 240 238 237 237 236 236 235 235 235 234 235 235 234 234 234 234 234 233 234 234 233 233 233 234 235 236 237 238 241 243 243 244 244 245 246 245 244 242 239 239 239 240 239 239 239 236 234 234 237 240 244 246 247 247 249 250 252
294 293 291 289 288 286 284 282 279 277 275 272 270 268 265 263 261 259 257 255 253 252 250 248 247 246 244 243 243 243 243 241 239 238 237 236 236 235 235 234 234 234 234 233 233 234 234 234 233 233 234 233 233 233 234 235 236 237 238 240 242 242 242 242 243 244 243 241 238 236 236 235 237 238 239 240 239 239 237 237 239 240 242 245 246 249 251 253
297 296 294 293 291 289 288 286 284 281 278 275 272 269 267 264 262 260 258 256 254 252 251 249 247 246 244 243 242 242 242 242 240 238 237 236 235 235 234 233 233 233 233 233 232 233 233 234 234 233 234 233 233 234 234 235 237 238 239 240 240 240 240 239 240 241 240 240 237 235 234 231 232 234 237 239 239 240 239 238 239 240 243 245 247 250 251 253
300 298 297 296 295 293 291 289 287 285 282 279 276 272 269 266 263 261 259 256 254 253 251 249 248 246 244 243 242 241 241 241 241 238 237 236 235 234 234 233 233 233 233 233 232 232 233 234 234 233 233 233 233 233 233 234 236 237 238 238 239 240 239 237 238 239 238 239 236 234 232 227 228 231 233 237 239 239 239 239 241 243 246 248 248 249 252 254
304 303 303 301 299 297 294 292 288 285 283 280 277 274 271 267 264 261 259 257 255 253 251 250 248 246 245 243 241 240 240 241 240 238 237 235 235 234 233 232 232 232 232 233 233 232 232 233 233 234 233 233 232 232 232 233 235 236 236 237 238 238 238 236 236 237 237 237 235 233 230 226 227 228 231 235 237 238 239 241 244 247 249 248 248 249 253 256
310 309 308 306 305 302 300 297 293 289 285 281 277 274 272 269 266 262 258 256 255 254 252 250 248 247 245 243 242 239 240 242 239 238 237 235 235 234 233 233 232 232 232 232 232 232 231 231 232 233 233 232 232 232 231 232 233 235 235 235 237 237 237 235 234 235 235 234 234 234 232 228 227 228 231 234 235 236 239 241 245 248 249 249 249 250 253 256
314 313 312 310 308 306 304 301 298 295 291 286 281 276 272 269 267 264 260 257 254 253 252 250 249 247 245 243 241 239 240 242 239 237 236 235 234 233 233 233 232 231 232 232 232 232 231 232 233 232 232 231 230 230 229 230 231 233 234 233 235 235 234 233 232 231 232 232 232 233 232 229 227 228 231 233 233 235 238 242 245 246 249 252 252 252 254 258
316 315 314 312 310 308 305 302 299 295 292 288 284 280 276 271 268 265 262 259 256 253 251 250 248 247 245 243 242 240 238 238 238 236 235 235 234 233 232 232 232 231 231 231 232 232 232 233 233 232 231 230 229 228 228 229 229 231 232 231 232 232 230 230 229 228 229 230 229 230 231 228 226 229 233 233 234 236 238 241 244 246 250 255 256 257 261 265
319 317 316 313 311 308 305 301 298 294 291 287 283 280 276 273 269 265 263 260 258 255 252 250 248 246 245 243 242 242 239 237 237 236 234 234 234 233 232 231 231 231 231 231 231 231 233 234 233 231 231 230 229 228 227 228 228 229 230 229 229 230 228 227 226 225 226 227 227 228 229 227 227 231 233 234 236 237 238 240 244 249 254 257 260 262 266 268
320 319 317 314 311 308 305 301 298 294 291 287 284 281 277 273 269 265 262 260 258 256 254 251 248 246 244 242 243 243 240 237 236 236 235 234 233 233 232 231 230 230 230 230 230 230 231 232 232 231 231 230 229 228 228 228 228 227 229 229 227 229 229 226 223 222 223 224 224 227 229 229 229 232 234 234 235 236 238 242 246 250 252 255 260 265 266 266
321 319 317 315 312 309 306 302 298 295 292 288 285 282 279 275 271 266 262 258 256 255 254 252 249 247 243 241 244 243 239 238 235 234 234 233 232 232 231 230 229 229 229 229 229 228 228 229 229 229 230 229 228 228 228 228 229 227 228 228 226 228 228 225 223 221 221 220 221 226 230 230 230 233 235 234 235 236 238 243 247 248 249 254 261 266 266 267
321 320 318 315 313 310 306 302 298 294 290 286 282 279 275 272 269 266 263 259 256 253 252 251 250 247 243 241 244 242 238 238 234 232 232 231 230 231 230 229 228 227 226 227 226 225 225 226 226 226 226 227 227 226 226 226 227 227 227 229 227 227 227 223 223 222 220 218 219 226 230 228 228 231 234 234 235 237 239 243 247 248 251 257 263 265 265 265
321 320 319 317 315 312 309 304 299 294 290 284 280 275 271 267 264 262 261 259 256 253 250 249 249 247 243 241 242 240 239 237 233 231 231 230 228 228 229 227 226 225 224 224 224 223 222 223 223 224 223 225 226 226 226 225 226 225 227 229 228 227 226 222 221 221 219 217 218 225 229 228 227 230 233 235 236 238 239 241 244 248 254 260 261 261 262 262
322 322 322 321 320 318 314 309 307 307 301 291 284 279 273 267 263 259 257 256 255 253 250 248 247 245 242 242 241 239 239 237 232 230 230 229 227 227 227 225 224 223 221 220 220 220 220 220 220 221 221 221 222 224 225 224 224 224 224 226 227 227 226 222 221 220 217 216 219 225 228 227 227 230 233 236 237 237 238 240 244 250 256 260 260 259 259 261
325 326 325 325 327 326 321 320 328 331 319 301 291 286 279 272 265 260 257 254 252 251 250 248 246 244 241 242 242 239 238 235 231 229 228 226 225 225 226 224 222 220 218 217 218 218 217 218 218 218 219 219 219 220 222 223 224 224 224 224 225 225 224 221 219 219 217 216 220 225 228 227 227 228 231 234 237 236 237 241 246 251 256 260 260 258 258 260
328 329 328 329 334 334 330 336 345 346 333 311 297 290 284 280 273 265 259 254 251 250 249 247 245 243 239 240 241 239 236 232 229 228 226 223 220 221 223 223 221 218 216 215 215 215 216 216 216 216 217 218 218 219 221 222 224 225 226 226 226 225 224 220 217 217 217 217 220 225 228 229 229 231 232 235 237 236 235 239 245 248 252 256 257 255 256 258
331 331 331 335 340 339 340 347 351 352 348 331 311 298 288 285 282 275 265 256 251 248 247 246 244 241 238 239 242 239 236 231 226 225 224 220 217 217 219 220 219 218 216 214 213 213 214 215 215 216 216 217 217 218 220 221 222 225 226 226 226 226 224 219 215 214 215 217 221 224 228 230 232 234 235 237 238 236 233 237 241 243 247 250 251 252 253 256
334 333 335 340 343 343 346 351 353 356 358 352 336 319 304 295 289 281 272 263 255 248 244 243 242 239 237 238 241 239 235 230 225 224 222 217 213 213 215 216 217 217 215 214 212 212 213 215 214 214 214 214 215 217 219 220 220 223 226 225 225 225 223 218 213 212 213 215 218 222 225 228 232 234 236 238 237 234 233 236 239 240 242 245 248 250 252 256
336 336 340 344 345 344 347 351 355 358 1 3 359 346 330 317 306 295 282 269 260 253 243 238 239 237 234 236 239 237 233 228 224 222 220 215 210 210 212 214 214 214 214 212 212 212 214 215 213 211 210 211 213 214 216 217 217 220 224 225 224 223 220 216 210 210 212 214 216 219 222 225 228 231 234 237 236 233 232 234 235 236 238 242 246 248 250 255
337 339 344 346 344 345 347 351 356 0 3 7 9 7 357 343 331 320 304 281 257 254 246 236 234 233 231 232 235 234 229 225 223 221 218 213 207 206 208 211 211 211 211 212 213 213 214 214 211 209 208 208 210 212 213 212 213 216 220 222 222 221 219 213 207 207 210 212 214 218 221 223 226 228 230 233 232 228 227 230 234 236 239 242 244 246 247 251
338 341 346 345 344 347 350 351 355 1 5 7 10 14 14 9 2 354 342 322 255 249 249 238 231 228 226 225 229 229 225 221 220 218 215 211 205 203 205 207 207 208 209 211 213 213 214 213 210 208 207 207 208 210 211 210 211 213 216 219 219 219 218 212 206 207 209 211 213 216 218 222 224 224 225 227 228 226 225 230 235 239 241 242 244 245 245 245
338 342 345 346 347 349 352 354 355 359 6 8 8 11 15 18 16 18 20 14 334 272 266 253 238 229 223 222 225 225 222 218 218 216 212 208 203 200 202 204 204 204 206 209 211 212 213 211 209 208 208 207 208 209 209 209 209 212 214 216 216 216 215 211 205 205 209 211 213 214 216 220 221 221 221 223 225 224 226 230 235 238 240 242 243 242 241 239
338 340 342 344 345 346 349 354 356 358 5 9 9 10 11 14 14 14 17 17 9 345 313 283 252 234 226 223 223 222 219 214 214 214 209 205 201 197 199 201 200 201 203 207 209 210 211 209 207 207 208 208 208 208 208 207 208 211 213 214 214 213 213 209 205 204 208 211 212 214 218 220 221 220 219 220 222 223 226 230 233 237 241 243 244 243 241 237
339 339 339 340 341 343 346 351 357 359 4 8 9 11 12 13 14 9 6 8 10 6 355 335 285 249 230 223 222 219 214 209 211 211 205 202 200 196 198 199 197 198 201 204 206 207 209 207 206 206 206 207 208 207 206 206 207 210 211 212 212 212 211 208 207 206 207 211 212 213 217 220 219 219 219 219 221 224 227 230 232 236 240 242 243 241 238 235
340 340 340 339 339 341 344 349 357 359 2 6 7 10 12 13 15 10 7 10 10 6 352 339 318 283 247 226 220 215 209 205 206 205 201 200 198 196 197 197 195 196 199 202 203 204 206 206 205 205 205 205 206 206 205 204 206 207 207 208 208 207 206 205 207 208 208 211 213 213 216 218 216 214 216 220 222 226 228 231 233 234 237 239 238 236 232 230
343 344 343 342 341 343 346 351 357 358 358 2 4 8 10 12 13 10 11 12 7 3 348 339 326 293 272 234 213 207 203 201 200 198 196 196 194 194 196 196 195 195 197 200 201 202 204 203 203 205 204 204 205 204 203 204 205 203 202 204 203 200 198 199 205 207 209 213 214 214 216 219 216 211 213 219 221 224 227 228 228 228 232 234 228 224 222 223
346 348 347 346 345 348 351 354 357 358 358 0 4 7 7 9 12 13 13 8 3 358 342 331 320 299 284 236 202 196 196 195 194 193 191 191 190 192 194 194 194 195 196 198 200 200 201 199 199 203 203 204 204 202 202 203 201 197 199 201 198 196 194 196 201 203 208 213 213 215 218 220 220 214 214 220 222 222 224 223 223 227 234 234 225 216 214 218
348 351 352 351 350 351 354 355 358 2 3 5 6 6 7 5 6 11 7 358 357 349 335 329 320 303 275 217 190 184 188 191 190 189 185 185 187 189 193 192 192 194 195 197 198 197 197 196 196 199 201 201 201 201 201 201 197 193 197 197 193 192 193 196 199 201 207 212 211 213 218 220 222 219 218 221 219 216 217 217 216 218 218 216 215 212 211 213
349 352 354 354 353 353 353 354 358 5 7 8 7 5 7 5 1 1 357 353 354 344 332 331 319 287 224 189 178 178 183 187 187 186 182 182 184 187 191 190 189 193 194 195 196 195 195 194 194 197 198 198 198 198 199 197 193 192 195 194 190 189 192 196 200 202 208 211 209 210 216 221 224 222 217 216 214 216 216 208 202 209 209 200 202 206 207 209
350 353 354 354 356 357 357 357 360 7 10 10 8 4 4 5 0 355 354 354 352 344 331 323 313 215 179 178 175 176 180 182 183 183 181 180 181 185 189 188 188 191 194 194 194 193 193 192 193 195 195 196 196 196 198 194 191 193 195 194 191 190 193 197 200 203 208 210 208 208 214 221 224 221 216 211 207 213 216 206 204 215 218 214 208 204 203 205
351 353 354 355 358 1 2 3 4 7 11 11 8 2 1 4 360 354 356 354 350 347 341 334 359 159 180 184 176 175 176 179 179 179 179 179 179 182 186 186 186 189 193 196 195 193 192 192 193 194 193 194 194 195 198 195 191 194 195 194 193 193 195 196 198 204 209 209 206 207 213 220 223 219 216 209 197 194 199 201 208 218 220 218 212 202 196 197
350 353 354 354 357 0 2 5 7 8 9 8 3 358 358 0 357 355 355 351 350 354 356 9 77 141 170 173 173 173 172 175 178 177 178 179 179 180 182 183 184 187 192 196 195 193 193 193 193 193 192 193 193 192 193 191 191 193 194 193 193 193 194 195 198 205 209 209 206 209 215 220 222 218 211 207 202 195 193 201 214 221 223 222 215 206 198 193
351 353 355 353 354 358 2 7 12 14 11 7 4 1 2 2 359 0 0 355 357 2 11 40 65 123 160 166 171 169 167 172 176 176 177 178 178 178 179 181 185 188 190 192 192 193 194 193 193 193 192 191 192 191 189 188 189 192 194 195 192 190 191 191 197 205 209 210 208 212 217 221 224 220 209 208 211 204 195 202 216 222 225 226 222 214 206 198
352 354 356 354 354 358 3 8 15 21 18 13 11 10 12 12 7 7 7 6 8 9 17 47 79 128 156 164 165 163 165 171 173 174 175 176 176 176 178 181 184 187 188 188 190 192 193 191 192 193 193 192 190 190 190 187 186 190 194 193 188 188 189 191 196 202 207 210 210 213 217 221 225 223 211 210 215 207 198 201 213 222 230 230 223 216 210 207
355 356 357 357 358 359 3 9 12 13 12 13 14 13 15 16 11 11 16 18 18 10 15 53 112 142 151 157 157 157 166 172 172 171 173 174 175 176 178 180 182 184 187 187 188 190 190 189 190 191 192 192 189 189 190 187 185 190 194 192 188 189 191 191 194 201 206 209 209 212 217 221 225 225 217 213 216 211 201 203 214 226 233 224 214 210 208 208
358 359 358 359 2 2 3 7 7 0 360 9 16 14 15 15 13 19 27 22 14 15 46 91 114 121 131 148 154 159 169 173 171 170 171 173 174 174 177 178 179 183 187 187 186 186 186 187 188 189 189 191 190 190 189 185 185 188 191 191 190 192 193 193 195 200 205 209 210 211 216 220 224 229 224 219 222 218 207 209 220 227 222 205 201 206 207 207
1 2 1 2 4 4 2 2 3 359 357 8 17 17 17 17 17 26 32 26 29 58 91 101 106 107 116 141 153 165 174 173 171 169 169 172 173 173 174 173 176 182 185 184 183 182 183 185 184 185 188 191 192 192 189 186 187 189 189 188 189 192 194 194 197 200 204 209 209 210 215 218 221 228 226 220 221 219 216 220 224 222 210 192 192 206 211 209
2 4 4 6 6 5 4 1 3 4 1 5 15 19 20 20 22 30 36 46 63 82 95 99 103 107 115 140 148 162 178 174 171 168 167 170 172 171 170 170 174 179 180 181 180 179 182 182 180 184 189 190 192 192 188 187 190 192 190 187 188 192 194 194 198 201 203 207 208 209 213 215 215 219 219 217 218 217 215 214 212 214 209 195 198 216 216 210
1 4 6 9 11 8 7 5 7 9 6 9 17 20 20 20 25 32 44 69 82 83 91 97 104 110 116 147 160 169 178 174 169 166 166 168 169 167 167 169 172 173 173 173 174 175 179 179 178 183 188 189 189 187 185 187 191 192 191 188 189 192 194 195 199 202 204 205 206 207 208 211 213 210 208 213 214 206 200 200 204 214 211 197 200 212 210 207
2 3 5 9 14 15 15 14 12 11 12 16 20 17 15 18 24 32 45 77 92 86 89 94 101 114 128 157 170 172 175 172 167 165 167 169 167 165 166 168 168 165 162 162 166 173 177 177 178 181 184 187 185 182 183 187 190 190 190 189 190 192 195 197 199 204 207 208 208 207 206 206 207 206 205 207 203 195 193 196 201 209 204 191 190 195 199 202
3 4 5 8 14 20 25 23 17 16 19 20 19 14 13 16 21 32 46 73 97 98 92 95 103 111 112 131 156 161 168 171 167 167 172 171 165 161 162 164 162 158 156 158 164 171 173 174 177 178 179 182 180 178 181 186 189 190 189 190 191 193 195 197 199 204 209 211 211 209 208 207 204 203 204 203 202 200 198 197 200 202 195 185 185 196 208 211
4 7 8 8 12 20 29 28 18 16 18 17 15 16 20 25 27 35 49 63 94 109 101 103 115 110 100 113 154 158 163 171 171 171 174 169 162 158 158 157 155 154 158 162 166 170 171 173 176 179 182 183 181 182 183 185 188 189 188 190 192 194 196 198 200 205 209 213 215 213 212 211 208 205 203 202 205 205 202 203 204 199 191 189 197 216 234 239
7 8 9 9 11 16 26 28 17 13 14 11 10 15 24 30 31 36 46 54 89 119 114 114 116 116 120 138 159 154 158 173 177 174 170 166 160 155 153 155 155 156 162 165 166 169 172 175 178 181 185 187 186 186 185 184 187 188 187 190 193 195 197 198 201 207 210 213 217 217 217 216 214 210 208 209 212 211 210 213 213 208 205 208 219 235 246 245
11 9 9 10 12 15 19 21 16 13 13 11 12 21 31 32 34 40 47 65 105 119 114 112 107 111 129 144 149 147 156 173 178 173 168 165 158 152 153 160 161 160 164 166 167 170 173 176 178 179 182 187 189 187 185 185 188 188 187 189 193 196 198 200 202 208 211 213 216 221 222 222 221 218 214 214 216 216 215 218 221 223 225 229 237 246 251 242
10 9 9 10 13 17 18 18 17 14 12 10 12 22 33 35 38 45 51 73 109 122 114 104 99 106 115 126 137 136 144 166 173 170 167 161 154 153 160 166 162 159 165 169 170 172 173 174 177 176 176 183 188 187 186 187 188 188 188 190 193 197 199 202 204 208 212 213 212 219 226 226 226 227 224 222 223 223 224 228 230 234 239 242 243 246 244 233
8 8 10 13 16 18 19 21 20 14 9 8 10 18 34 38 41 47 53 66 89 113 119 110 108 117 110 110 121 120 128 158 169 168 163 156 153 158 165 164 158 159 167 172 172 174 174 174 175 173 173 179 185 186 186 188 189 190 190 192 194 197 200 203 207 211 214 214 212 214 221 224 225 228 229 229 229 228 229 230 233 237 240 238 236 234 227 219
10 9 11 14 16 19 20 21 20 14 10 7 6 17 39 45 46 52 55 60 69 85 113 121 121 122 116 115 124 126 128 154 167 166 161 155 155 162 164 159 156 162 169 171 171 173 175 176 176 173 172 176 181 183 185 188 191 193 193 194 195 197 200 203 207 212 215 215 214 214 216 219 219 221 224 226 226 224 220 219 223 227 227 225 224 217 204 200
12 13 14 14 14 19 23 23 22 16 13 10 7 20 46 50 49 54 53 56 67 78 99 121 125 124 123 123 131 135 131 146 166 165 160 156 159 164 163 158 156 164 169 167 163 168 173 175 174 172 173 177 181 183 185 187 191 195 195 195 196 198 201 203 206 210 213 215 217 217 218 220 221 221 222 222 222 220 216 215 218 218 215 214 213 208 206 215
9 12 14 15 15 19 23 26 27 20 17 18 19 31 50 52 51 55 52 54 75 89 95 110 124 126 125 124 132 139 135 146 165 165 161 160 162 165 165 159 154 163 171 166 158 163 169 171 172 174 177 182 184 184 186 188 190 194 195 196 197 199 202 203 206 210 212 214 218 220 221 222 222 222 221 221 223 221 217 216 218 217 214 213 214 216 224 232
Height
5711 5709 5707 5706 5704 5703 5702 5701 5700 5699 5699 5698 5697 5697 5696 5696 5696 5697 5698 5698 5699 5700 5702 5703 5704 5705 5705 5707 5710 5712 5715 5717 5720 5722 5724 5728 5730 5731 5735 5737 5739 5742 5746 5750 5753 5756 5759 5762 5765 5769 5771 5774 5777 5780 5783 5785 5787 5788 5789 5789 5788 5790 5795 5801 5807 5812 5815 5821 5825 5828 5829 5828 5830 5833 5832 5835 5835 5835 5836 5836 5836 5837 5837 5838 5841 5843 5845 5846
5705 5703 5701 5699 5698 5696 5695 5694 5693 5692 5692 5691 5690 5690 5689 5689 5688 5689 5689 5690 5691 5692 5694 5695 5697 5698 5699 5700 5702 5705 5708 5710 5714 5716 5717 5721 5724 5725 5729 5732 5733 5736 5741 5744 5747 5750 5753 5756 5759 5762 5765 5767 5771 5775 5777 5780 5782 5783 5785 5784 5784 5789 5795 5801 5806 5809 5812 5816 5820 5823 5824 5823 5826 5828 5828 5830 5831 5831 5832 5832 5832 5833 5833 5835 5837 5839 5840 5841
5699 5697 5694 5692 5691 5689 5688 5686 5685 5684 5684 5683 5682 5682 5682 5681 5681 5681 5681 5682 5683 5684 5685 5687 5688 5690 5691 5692 5695 5698 5700 5704 5707 5709 5711 5715 5717 5719 5723 5726 5728 5731 5736 5739 5741 5744 5747 5750 5753 5755 5759 5762 5766 5770 5772 5775 5777 5779 5780 5778 5782 5790 5795 5799 5803 5806 5810 5813 5816 5819 5819 5820 5822 5823 5823 5825 5826 5826 5828 5828 5828 5828 5829 5831 5833 5834 5835 5836
5692 5690 5688 5685 5683 5681 5680 5678 5677 5676 5674 5674 5673 5673 5673 5673 5673 5673 5673 5673 5674 5675 5677 5678 5680 5682 5684 5685 5687 5690 5693 5696 5700 5702 5705 5708 5710 5713 5716 5719 5722 5725 5729 5733 5735 5738 5741 5744 5747 5750 5753 5757 5761 5765 5767 5770 5772 5774 5775 5776 5783 5789 5792 5796 5800 5803 5807 5808 5811 5814 5815 5816 5818 5818 5819 5821 5822 5824 5825 5825 5824 5824 5825 5827 5830 5831 5831 5832
5685 5682 5680 5677 5675 5673 5671 5669 5668 5667 5665 5665 5664 5664 5663 5663 5663 5663 5664 5664 5665 5666 5667 5669 5671 5673 5676 5678 5680 5683 5686 5688 5693 5696 5698 5700 5703 5707 5710 5713 5716 5719 5722 5726 5729 5733 5735 5738 5742 5745 5747 5752 5756 5759 5763 5766 5768 5770 5772 5776 5782 5785 5788 5794 5798 5800 5803 5804 5807 5809 5811 5813 5814 5814 5816 5817 5819 5820 5821 5821 5820 5820 5822 5824 5828 5828 5828 5829
5677 5674 5671 5668 5666 5664 5662 5660 5658 5657 5656 5655 5654 5654 5653 5653 5653 5653 5654 5654 5656 5657 5658 5660 5661 5664 5667 5670 5673 5676 5678 5681 5685 5688 5690 5693 5697 5700 5704 5707 5710 5712 5715 5719 5724 5727 5730 5732 5736 5739 5742 5747 5751 5755 5759 5763 5765 5767 5771 5774 5777 5780 5786 5792 5795 5796 5799 5800 5804 5806 5807 5810 5810 5810 5812 5813 5815 5816 5817 5817 5817 5819 5822 5824 5826 5826 5825 5826
5668 5666 5663 5660 5658 5655 5653 5651 5649 5647 5646 5645 5644 5644 5643 5643 5643 5643 5644 5644 5645 5646 5648 5650 5651 5655 5658 5662 5665 5667 5672 5675 5676 5679 5682 5686 5690 5693 5697 5700 5703 5706 5710 5714 5718 5722 5725 5727 5731 5735 5738 5742 5747 5751 5756 5759 5761 5763 5766 5769 5772 5777 5783 5788 5791 5793 5795 5797 5800 5802 5803 5805 5806 5807 5808 5808 5811 5813 5813 5814 5815 5819 5821 5823 5823 5822 5821 5822
5661 5658 5655 5653 5650 5648 5646 5643 5642 5640 5638 5636 5634 5633 5633 5633 5633 5633 5633 5634 5635 5635 5638 5639 5642 5646 5648 5654 5656 5660 5667 5666 5665 5670 5674 5679 5682 5686 5690 5694 5697 5701 5705 5709 5713 5716 5720 5722 5726 5730 5733 5738 5742 5747 5752 5755 5756 5758 5761 5765 5768 5774 5779 5784 5787 5789 5791 5794 5796 5797 5798 5801 5803 5804 5804 5805 5807 5808 5810 5811 5813 5817 5819 5819 5819 5818 5818 5820
5654 5651 5648 5646 5643 5641 5639 5636 5634 5633 5631 5629 5627 5626 5624 5623 5623 5623 5623 5624 5624 5625 5627 5629 5632 5635 5639 5645 5646 5654 5661 5655 5656 5663 5666 5671 5675 5679 5684 5687 5691 5695 5699 5703 5707 5710 5714 5717 5721 5725 5729 5734 5738 5742 5747 5749 5751 5753 5757 5762 5765 5770 5775 5780 5783 5785 5788 5790 5792 5793 5795 5798 5800 5800 5800 5801 5803 5805 5807 5809 5811 5814 5815 5815 5815 5816 5816 5817
5648 5646 5643 5640 5637 5635 5633 5630 5628 5626 5624 5622 5620 5619 5617 5616 5614 5613 5614 5614 5615 5615 5617 5619 5622 5625 5630 5634 5639 5650 5651 5643 5646 5654 5658 5663 5667 5672 5677 5681 5685 5689 5693 5697 5701 5705 5709 5713 5717 5721 5724 5729 5732 5736 5740 5743 5746 5748 5752 5758 5762 5766 5771 5774 5778 5781 5783 5785 5787 5789 5791 5795 5796 5796 5795 5798 5800 5803 5805 5807 5809 5810 5811 5811 5811 5813 5814 5816
5643 5641 5638 5635 5632 5630 5627 5624 5622 5619 5617 5615 5613 5612 5610 5609 5607 5606 5606 5605 5606 5606 5608 5609 5612 5616 5619 5624 5633 5637 5634 5633 5638 5644 5650 5655 5659 5665 5669 5673 5678 5683 5687 5692 5696 5701 5705 5709 5712 5715 5718 5723 5727 5731 5735 5737 5741 5744 5748 5754 5757 5760 5764 5768 5772 5776 5778 5780 5783 5786 5788 5790 5791 5791 5792 5795 5798 5801 5803 5804 5805 5806 5808 5808 5808 5809 5811 5814
5639 5636 5633 5630 5627 5624 5621 5618 5615 5612 5609 5607 5605 5603 5601 5600 5599 5599 5598 5597 5598 5598 5599 5600 5603 5607 5609 5617 5623 5620 5622 5629 5631 5636 5644 5647 5651 5656 5661 5666 5671 5675 5681 5686 5691 5696 5700 5704 5706 5710 5714 5719 5723 5727 5730 5732 5736 5740 5744 5748 5752 5755 5758 5762 5767 5771 5774 5776 5780 5782 5782 5784 5786 5788 5790 5793 5796 5799 5800 5800 5802 5804 5806 5806 5805 5808 5810 5812
5634 5631 5628 5624 5620 5617 5614 5610 5607 5604 5601 5598 5596 5594 5593 5591 5590 5590 5589 5589 5590 5590 5591 5592 5595 5597 5601 5610 5612 5608 5616 5622 5623 5630 5637 5639 5644 5648 5653 5659 5664 5669 5674 5679 5685 5689 5694 5698 5701 5705 5710 5714 5719 5722 5725 5728 5732 5736 5739 5743 5748 5750 5753 5758 5762 5766 5769 5773 5776 5776 5776 5779 5784 5785 5787 5790 5793 5796 5797 5798 5800 5802 5803 5803 5805 5807 5808 5809
5630 5626 5622 5618 5615 5610 5606 5602 5598 5595 5591 5588 5586 5584 5583 5581 5580 5579 5579 5581 5581 5582 5583 5584 5587 5588 5593 5603 5601 5600 5609 5611 5615 5623 5625 5630 5637 5640 5646 5651 5656 5662 5667 5672 5677 5683 5688 5691 5695 5700 5705 5710 5715 5718 5721 5725 5728 5733 5735 5738 5743 5745 5748 5755 5758 5761 5765 5769 5772 5771 5772 5778 5782 5782 5784 5788 5790 5793 5795 5797 5798 5800 5800 5802 5804 5805 5806 5807
5625 5621 5617 5613 5609 5604 5599 5594 5589 5584 5579 5575 5572 5571 5570 5568 5567 5567 5568 5571 5572 5573 5575 5576 5579 5580 5586 5595 5592 5593 5599 5601 5607 5612 5614 5622 5629 5634 5638 5643 5648 5654 5660 5665 5670 5676 5681 5685 5690 5694 5699 5705 5709 5712 5716 5720 5724 5728 5730 5732 5737 5740 5745 5752 5755 5758 5763 5766 5768 5767 5769 5775 5778 5778 5781 5784 5787 5790 5794 5795 5796 5797 5798 5800 5802 5803 5804 5804
5621 5617 5612 5608 5603 5598 5591 5584 5577 5570 5563 5558 5555 5554 5554 5552 5552 5553 5557 5560 5561 5564 5566 5568 5570 5572 5579 5585 5584 5586 5589 5593 5599 5603 5608 5616 5622 5626 5630 5636 5642 5647 5653 5658 5663 5669 5674 5679 5685 5689 5694 5699 5704 5708 5712 5715 5719 5722 5726 5728 5733 5736 5741 5748 5751 5755 5760 5763 5764 5764 5767 5772 5775 5776 5778 5781 5785 5789 5792 5793 5794 5795 5796 5798 5799 5801 5802 5802
5616 5612 5607 5603 5597 5591 5583 5574 5565 5557 5549 5543 5540 5538 5537 5536 5537 5540 5544 5547 5550 5553 5556 5560 5561 5564 5572 5576 5576 5578 5580 5586 5592 5597 5602 5609 5615 5619 5622 5630 5635 5640 5645 5650 5656 5662 5667 5673 5678 5683 5688 5693 5699 5703 5706 5709 5713 5717 5720 5723 5728 5733 5738 5744 5748 5752 5756 5759 5761 5762 5765 5769 5772 5774 5777 5779 5783 5787 5790 5791 5792 5794 5794 5796 5797 5799 5800 5800
5612 5607 5602 5597 5591 5583 5574 5566 5558 5549 5540 5533 5529 5526 5525 5524 5524 5527 5530 5534 5538 5541 5546 5549 5551 5557 5566 5568 5567 5568 5572 5579 5585 5589 5595 5602 5608 5612 5617 5624 5628 5633 5638 5643 5650 5656 5662 5667 5672 5677 5682 5687 5692 5696 5699 5703 5709 5713 5716 5719 5724 5729 5734 5741 5746 5749 5753 5756 5758 5759 5762 5765 5768 5771 5775 5777 5780 5784 5787 5789 5791 5792 5792 5793 5795 5797 5798 5799
5607 5603 5597 5591 5585 5577 5568 5560 5552 5543 5533 5525 5521 5519 5517 5516 5516 5517 5518 5521 5525 5530 5534 5537 5541 5549 5558 5558 5557 5559 5565 5573 5578 5582 5587 5594 5600 5605 5611 5617 5622 5628 5632 5638 5644 5650 5656 5661 5665 5670 5676 5682 5687 5691 5696 5701 5707 5712 5715 5719 5723 5727 5732 5738 5744 5747 5751 5754 5756 5757 5759 5763 5766 5769 5773 5775 5778 5782 5785 5787 5788 5789 5790 5791 5792 5794 5796 5797
5603 5598 5592 5586 5579 5572 5564 5557 5549 5539 5529 5521 5516 5513 5511 5510 5510 5510 5510 5511 5514 5518 5522 5526 5532 5540 5548 5549 5548 5551 5558 5565 5571 5575 5580 5587 5593 5598 5603 5610 5617 5622 5628 5633 5639 5644 5649 5654 5659 5667 5674 5680 5685 5690 5694 5699 5706 5711 5713 5717 5720 5724 5730 5736 5741 5745 5748 5751 5753 5756 5758 5761 5764 5769 5771 5773 5776 5779 5782 5784 5785 5787 5788 5789 5790 5792 5794 5795
5599 5594 5588 5581 5575 5568 5561 5554 5545 5537 5527 5518 5513 5509 5507 5506 5505 5504 5503 5505 5506 5507 5511 5516 5520 5529 5539 5541 5539 5543 5550 5558 5566 5570 5573 5580 5586 5591 5597 5603 5610 5617 5624 5629 5633 5638 5643 5649 5657 5664 5671 5677 5682 5687 5691 5697 5704 5707 5710 5714 5717 5722 5727 5734 5739 5742 5745 5748 5751 5753 5756 5759 5762 5766 5768 5770 5773 5776 5779 5780 5782 5783 5785 5786 5787 5789 5791 5793
5596 5590 5584 5577 5571 5565 5558 5551 5543 5536 5527 5519 5512 5508 5505 5503 5501 5499 5498 5501 5501 5500 5503 5507 5510 5519 5529 5532 5531 5535 5544 5554 5560 5563 5566 5573 5580 5587 5593 5598 5605 5614 5619 5623 5628 5633 5639 5646 5653 5659 5666 5672 5677 5683 5688 5694 5701 5703 5706 5710 5714 5718 5724 5731 5736 5739 5742 5745 5747 5750 5753 5757 5760 5762 5764 5767 5770 5773 5775 5776 5777 5779 5781 5783 5785 5787 5789 5791
5593 5587 5581 5575 5569 5562 5556 5550 5542 5535 5528 5521 5514 5509 5505 5501 5499 5496 5494 5495 5496 5494 5495 5498 5501 5508 5518 5523 5523 5527 5538 5547 5551 5555 5560 5568 5575 5581 5586 5593 5602 5608 5613 5619 5625 5630 5636 5642 5649 5655 5661 5667 5672 5678 5683 5690 5695 5698 5702 5706 5710 5715 5720 5726 5732 5736 5738 5741 5745 5747 5751 5753 5756 5759 5761 5764 5767 5769 5771 5772 5774 5776 5779 5781 5782 5785 5787 5789
5590 5585 5579 5573 5567 5561 5555 5548 5542 5535 5529 5523 5517 5511 5506 5502 5498 5495 5492 5492 5493 5490 5489 5492 5495 5501 5510 5513 5513 5519 5531 5538 5542 5548 5556 5563 5570 5575 5581 5588 5596 5602 5609 5616 5622 5627 5633 5640 5646 5652 5657 5662 5668 5673 5679 5685 5690 5694 5698 5702 5707 5712 5717 5723 5730 5734 5736 5739 5742 5745 5747 5749 5751 5755 5758 5761 5763 5765 5767 5769 5772 5775 5777 5778 5780 5782 5785 5786
5587 5583 5577 5572 5566 5560 5554 5548 5541 5536 5530 5524 5519 5514 5509 5504 5500 5497 5494 5492 5492 5490 5488 5490 5494 5498 5502 5505 5508 5515 5524 5532 5539 5544 5551 5558 5564 5570 5576 5582 5589 5598 5607 5612 5618 5624 5630 5637 5644 5649 5654 5659 5664 5669 5676 5682 5687 5691 5695 5699 5705 5710 5714 5721 5727 5731 5734 5737 5739 5742 5743 5744 5747 5751 5755 5758 5760 5762 5764 5767 5770 5772 5774 5776 5778 5780 5782 5783
5585 5580 5575 5570 5565 5559 5553 5547 5541 5536 5530 5525 5521 5516 5511 5507 5503 5500 5498 5495 5493 5492 5490 5491 5492 5494 5497 5501 5505 5510 5518 5530 5536 5538 5546 5553 5559 5565 5570 5576 5586 5596 5602 5608 5613 5619 5626 5634 5641 5646 5652 5657 5661 5667 5673 5680 5685 5688 5693 5698 5703 5707 5712 5719 5724 5728 5731 5733 5736 5739 5740 5742 5746 5749 5752 5755 5758 5760 5762 5764 5767 5769 5772 5774 5776 5778 5780 5781
5583 5578 5574 5569 5564 5558 5552 5547 5542 5536 5531 5526 5521 5517 5513 5509 5506 5503 5500 5497 5495 5494 5492 5492 5492 5492 5493 5496 5500 5505 5516 5526 5528 5533 5543 5551 5556 5561 5565 5573 5583 5590 5596 5601 5607 5616 5624 5631 5637 5643 5649 5654 5659 5665 5671 5677 5682 5686 5692 5697 5701 5706 5712 5717 5722 5726 5728 5730 5733 5736 5737 5739 5743 5747 5751 5753 5755 5757 5759 5762 5765 5767 5770 5772 5774 5776 5778 5779
5581 5577 5572 5568 5563 5558 5552 5547 5541 5536 5532 5527 5522 5518 5514 5510 5507 5504 5501 5499 5497 5496 5494 5493 5492 5491 5491 5492 5496 5503 5513 5519 5522 5532 5542 5547 5552 5558 5563 5571 5578 5585 5591 5597 5605 5614 5621 5628 5635 5640 5645 5651 5657 5663 5669 5674 5678 5684 5691 5695 5700 5705 5711 5716 5720 5723 5725 5727 5729 5731 5732 5734 5738 5743 5748 5749 5751 5753 5757 5760 5763 5766 5768 5770 5772 5773 5775 5777
5580 5575 5571 5566 5561 5556 5551 5546 5541 5536 5532 5527 5523 5518 5514 5511 5508 5505 5502 5500 5498 5497 5495 5493 5491 5490 5490 5490 5494 5500 5508 5514 5520 5528 5535 5541 5548 5555 5561 5568 5575 5581 5588 5595 5603 5610 5616 5625 5633 5639 5644 5649 5655 5661 5667 5671 5677 5684 5689 5693 5698 5703 5708 5713 5716 5720 5723 5723 5724 5727 5728 5730 5734 5739 5743 5743 5746 5751 5755 5759 5761 5764 5766 5767 5769 5770 5772 5774
5579 5574 5570 5564 5559 5555 5551 5546 5541 5536 5532 5527 5523 5519 5515 5511 5508 5505 5502 5500 5499 5498 5495 5493 5491 5490 5489 5489 5492 5497 5505 5511 5515 5521 5529 5537 5545 5551 5557 5564 5572 5579 5586 5592 5599 5607 5614 5623 5630 5636 5643 5649 5654 5659 5664 5669 5676 5683 5687 5690 5696 5700 5705 5709 5712 5716 5718 5717 5720 5724 5726 5727 5731 5735 5738 5740 5746 5752 5756 5758 5760 5762 5764 5765 5767 5768 5770 5771
5578 5573 5569 5564 5559 5554 5550 5545 5540 5536 5531 5527 5523 5520 5516 5512 5509 5505 5503 5501 5500 5498 5495 5493 5491 5489 5488 5489 5491 5496 5503 5508 5511 5517 5525 5533 5539 5546 5552 5559 5568 5577 5582 5588 5595 5604 5612 5619 5626 5633 5639 5645 5651 5657 5662 5668 5675 5681 5683 5687 5693 5697 5702 5705 5708 5711 5711 5711 5718 5722 5723 5724 5726 5731 5736 5741 5747 5752 5754 5756 5758 5761 5762 5763 5765 5767 5768 5769
5577 5573 5568 5564 5559 5554 5549 5545 5540 5536 5532 5527 5523 5520 5516 5513 5510 5507 5504 5502 5500 5497 5495 5493 5490 5488 5488 5489 5492 5496 5501 5506 5511 5517 5524 5530 5537 5544 5551 5559 5568 5575 5580 5586 5595 5603 5610 5617 5623 5628 5634 5640 5647 5653 5658 5665 5672 5676 5679 5683 5688 5693 5697 5699 5702 5704 5705 5708 5715 5719 5720 5720 5722 5730 5736 5741 5746 5749 5751 5754 5756 5759 5761 5762 5764 5765 5766 5767
5576 5572 5568 5563 5559 5554 5549 5545 5541 5537 5532 5528 5524 5521 5517 5514 5511 5509 5506 5502 5500 5497 5494 5491 5490 5488 5489 5490 5492 5496 5501 5506 5512 5518 5524 5530 5537 5545 5553 5561 5568 5575 5582 5588 5594 5600 5607 5612 5617 5622 5630 5637 5643 5648 5653 5659 5666 5670 5674 5679 5683 5686 5689 5692 5696 5699 5702 5706 5713 5718 5718 5717 5720 5728 5734 5739 5744 5748 5750 5752 5754 5756 5758 5760 5762 5763 5764 5765
5575 5571 5568 5563 5559 5555 5550 5546 5541 5537 5532 5528 5525 5522 5519 5515 5512 5509 5506 5504 5500 5497 5494 5492 5490 5490 5490 5491 5492 5496 5502 5508 5513 5519 5524 5529 5535 5541 5549 5557 5565 5572 5580 5586 5592 5598 5604 5608 5614 5621 5628 5635 5641 5647 5654 5660 5665 5668 5672 5676 5680 5684 5687 5690 5694 5697 5700 5706 5712 5714 5713 5713 5718 5725 5733 5738 5742 5744 5746 5748 5750 5753 5755 5757 5759 5760 5762 5763
5575 5571 5567 5563 5560 5555 5551 5546 5541 5537 5533 5529 5526 5523 5519 5516 5513 5509 5507 5504 5501 5498 5495 5493 5492 5492 5492 5493 5495 5499 5505 5510 5515 5519 5525 5530 5535 5542 5550 5558 5565 5570 5576 5584 5593 5599 5604 5610 5616 5622 5628 5634 5640 5646 5652 5660 5664 5667 5670 5674 5678 5683 5688 5692 5695 5698 5701 5706 5710 5710 5710 5712 5717 5724 5732 5736 5737 5738 5742 5745 5747 5750 5753 5755 5757 5759 5760 5762
5574 5571 5567 5563 5560 5556 5552 5547 5542 5538 5535 5531 5528 5524 5520 5517 5513 5510 5508 5505 5502 5500 5497 5496 5495 5494 5495 5496 5498 5502 5508 5513 5517 5522 5527 5533 5539 5546 5553 5559 5565 5569 5576 5585 5594 5600 5605 5611 5618 5623 5629 5634 5639 5645 5649 5654 5660 5664 5667 5671 5677 5683 5687 5692 5695 5698 5701 5704 5707 5708 5710 5713 5717 5723 5730 5733 5733 5736 5739 5742 5745 5747 5750 5753 5754 5756 5758 5760
5574 5570 5567 5564 5560 5557 5553 5548 5544 5540 5536 5533 5529 5525 5522 5519 5515 5512 5509 5507 5504 5502 5500 5498 5498 5498 5499 5499 5502 5506 5511 5515 5519 5524 5530 5535 5540 5546 5552 5558 5563 5571 5579 5587 5594 5600 5606 5612 5618 5624 5630 5634 5639 5645 5649 5653 5658 5662 5665 5670 5676 5681 5685 5689 5693 5696 5699 5701 5705 5707 5709 5712 5715 5721 5727 5729 5732 5734 5737 5740 5743 5746 5748 5750 5752 5754 5757 5759
5574 5570 5567 5564 5561 5557 5553 5550 5547 5543 5539 5535 5531 5528 5524 5521 5518 5514 5511 5509 5506 5504 5502 5500 5500 5501 5502 5504 5507 5511 5514 5518 5521 5526 5532 5537 5542 5547 5553 5559 5565 5573 5581 5587 5592 5598 5606 5612 5617 5623 5629 5634 5639 5642 5646 5652 5657 5662 5666 5672 5676 5679 5682 5685 5689 5693 5695 5699 5703 5706 5708 5711 5713 5718 5724 5728 5731 5733 5735 5738 5741 5744 5747 5749 5750 5752 5754 5756
5574 5570 5567 5564 5561 5557 5554 5551 5549 5546 5542 5537 5534 5530 5527 5524 5521 5517 5514 5512 5509 5506 5504 5503 5504 5505 5507 5509 5512 5515 5517 5521 5525 5529 5534 5539 5544 5550 5556 5562 5569 5575 5582 5588 5593 5599 5606 5611 5616 5622 5628 5632 5635 5637 5642 5648 5654 5658 5664 5671 5675 5678 5681 5684 5687 5691 5694 5698 5702 5705 5707 5709 5712 5717 5723 5728 5731 5732 5735 5738 5741 5744 5746 5747 5749 5751 5753 5755
5575 5571 5568 5564 5561 5558 5555 5553 5550 5547 5543 5540 5536 5533 5530 5527 5524 5521 5518 5516 5513 5510 5508 5509 5510 5511 5514 5516 5518 5520 5522 5524 5528 5531 5536 5541 5546 5551 5557 5563 5570 5577 5583 5589 5593 5599 5605 5610 5616 5621 5625 5629 5633 5637 5643 5648 5651 5653 5658 5665 5671 5675 5679 5684 5687 5690 5693 5697 5701 5704 5706 5709 5713 5716 5721 5726 5729 5731 5735 5738 5741 5743 5745 5747 5748 5750 5751 5753
5576 5573 5569 5566 5562 5559 5557 5554 5551 5548 5545 5542 5539 5536 5533 5530 5527 5525 5522 5520 5519 5516 5515 5515 5516 5518 5520 5522 5524 5526 5527 5529 5532 5535 5539 5543 5548 5554 5559 5564 5570 5577 5583 5589 5595 5601 5606 5611 5616 5619 5623 5628 5634 5641 5647 5650 5653 5655 5658 5662 5667 5672 5677 5681 5685 5688 5692 5695 5699 5703 5706 5709 5713 5716 5720 5724 5728 5731 5735 5738 5740 5742 5744 5746 5747 5748 5749 5751
5577 5574 5571 5568 5564 5561 5558 5555 5551 5549 5546 5543 5540 5538 5535 5533 5531 5529 5527 5525 5524 5522 5521 5522 5522 5523 5526 5528 5528 5529 5530 5532 5535 5538 5542 5546 5550 5555 5560 5565 5571 5577 5584 5592 5598 5602 5606 5610 5614 5619 5624 5630 5635 5641 5646 5650 5654 5657 5661 5664 5668 5672 5676 5680 5684 5687 5691 5694 5698 5701 5705 5710 5713 5716 5719 5722 5726 5730 5734 5736 5738 5741 5743 5745 5746 5747 5747 5749
5578 5575 5572 5569 5566 5563 5559 5556 5553 5550 5548 5544 5542 5540 5538 5536 5534 5532 5531 5529 5528 5527 5526 5526 5527 5528 5529 5531 5531 5532 5533 5535 5537 5540 5544 5547 5551 5555 5561 5566 5572 5579 5586 5592 5597 5601 5605 5610 5614 5618 5624 5630 5635 5640 5645 5649 5652 5656 5660 5664 5667 5671 5675 5680 5685 5688 5691 5694 5697 5700 5704 5708 5712 5716 5718 5720 5724 5727 5730 5733 5736 5738 5741 5743 5745 5746 5747 5748
5580 5576 5573 5570 5567 5564 5561 5558 5556 5553 5550 5547 5544 5542 5540 5538 5536 5534 5533 5532 5531 5531 5530 5531 5532 5532 5533 5533 5534 5535 5536 5538 5540 5542 5544 5547 5551 5556 5562 5569 5575 5581 5587 5592 5596 5600 5605 5610 5613 5616 5620 5626 5631 5636 5639 5644 5649 5653 5658 5662 5666 5670 5675 5679 5684 5687 5690 5692 5695 5699 5703 5707 5710 5714 5717 5719 5722 5725 5728 5731 5734 5736 5739 5741 5743 5745 5746 5748
5580 5577 5574 5571 5568 5565 5562 5560 5558 5556 5553 5549 5547 5545 5542 5540 5538 5536 5535 5535 5534 5534 5534 5534 5535 5535 5535 5536 5537 5538 5539 5541 5542 5544 5547 5550 5553 5558 5564 5571 5578 5584 5588 5591 5595 5599 5603 5607 5612 5616 5619 5622 5626 5630 5635 5640 5646 5651 5656 5661 5665 5669 5673 5678 5682 5684 5687 5691 5694 5698 5702 5705 5709 5712 5715 5718 5721 5724 5727 5729 5732 5735 5738 5740 5742 5743 5745 5748
5581 5578 5575 5572 5570 5567 5564 5562 5560 5558 5555 5552 5549 5547 5545 5542 5540 5539 5538 5537 5536 5536 5536 5537 5538 5537 5538 5539 5540 5541 5543 5544 5546 5549 5552 5555 5557 5561 5567 5574 5579 5583 5587 5590 5595 5599 5603 5607 5612 5617 5622 5626 5629 5633 5637 5641 5645 5649 5654 5658 5663 5667 5671 5676 5680 5682 5686 5689 5692 5696 5700 5703 5707 5711 5714 5716 5719 5722 5725 5728 5731 5734 5737 5739 5741 5742 5744 5746
5582 5579 5577 5574 5571 5569 5566 5564 5562 5559 5556 5554 5551 5549 5547 5545 5543 5541 5540 5539 5538 5539 5539 5540 5540 5541 5541 5542 5543 5545 5546 5548 5550 5553 5557 5559 5562 5565 5569 5574 5578 5582 5587 5592 5596 5600 5605 5609 5614 5618 5624 5629 5633 5636 5640 5643 5646 5650 5653 5657 5661 5666 5670 5674 5677 5681 5684 5688 5692 5695 5698 5702 5705 5708 5712 5715 5718 5721 5724 5727 5729 5732 5735 5737 5739 5740 5741 5743
5583 5581 5578 5576 5573 5570 5568 5566 5563 5561 5558 5556 5554 5551 5549 5547 5546 5544 5543 5542 5542 5542 5543 5543 5543 5544 5544 5545 5546 5548 5549 5551 5553 5556 5559 5562 5565 5569 5573 5576 5581 5586 5590 5595 5598 5602 5607 5612 5615 5619 5624 5629 5634 5638 5642 5645 5648 5651 5655 5657 5661 5665 5669 5673 5676 5679 5682 5686 5691 5693 5696 5700 5704 5706 5710 5714 5716 5720 5723 5726 5728 5729 5731 5733 5736 5737 5738 5739
5585 5583 5580 5577 5574 5571 5569 5567 5565 5563 5561 5559 5557 5554 5552 5550 5549 5548 5546 5545 5545 5545 5546 5546 5546 5546 5547 5548 5549 5551 5553 5554 5556 5558 5561 5564 5568 5572 5576 5582 5586 5590 5594 5597 5600 5604 5609 5613 5616 5620 5624 5628 5633 5637 5642 5645 5649 5652 5655 5658 5662 5665 5669 5673 5676 5679 5682 5685 5689 5692 5695 5699 5702 5704 5708 5711 5714 5717 5720 5722 5724 5725 5727 5730 5733 5735 5736 5737
5588 5585 5581 5578 5575 5573 5571 5569 5567 5565 5563 5561 5559 5557 5555 5554 5552 5551 5550 5549 5549 5549 5549 5549 5549 5550 5551 5551 5553 5555 5556 5558 5559 5561 5564 5567 5571 5575 5580 5585 5589 5591 5596 5599 5602 5605 5610 5614 5618 5620 5624 5628 5632 5636 5641 5645 5649 5652 5655 5658 5662 5665 5668 5672 5675 5678 5681 5684 5688 5691 5694 5697 5700 5703 5705 5708 5711 5714 5716 5719 5720 5722 5725 5727 5730 5733 5735 5736
5589 5586 5583 5580 5577 5575 5573 5571 5569 5567 5565 5563 5562 5560 5558 5557 5555 5554 5553 5553 5552 5552 5552 5551 5552 5553 5554 5555 5556 5557 5559 5561 5563 5565 5568 5570 5573 5577 5582 5587 5590 5593 5598 5601 5603 5607 5611 5615 5618 5621 5624 5628 5631 5635 5640 5644 5648 5651 5654 5658 5661 5664 5667 5671 5674 5677 5680 5683 5686 5689 5692 5695 5698 5701 5703 5706 5708 5711 5714 5717 5718 5720 5723 5725 5728 5730 5732 5734
5589 5587 5584 5582 5579 5577 5574 5573 5571 5569 5568 5566 5565 5563 5561 5560 5559 5558 5557 5556 5555 5555 5555 5554 5555 5556 5557 5558 5559 5560 5561 5563 5565 5568 5571 5573 5576 5580 5584 5589 5592 5595 5599 5602 5605 5608 5612 5616 5619 5622 5625 5628 5631 5635 5639 5643 5647 5650 5653 5656 5660 5663 5666 5670 5673 5676 5678 5681 5684 5687 5691 5693 5695 5698 5701 5704 5706 5709 5712 5715 5717 5719 5722 5724 5726 5728 5729 5730